Florala, AL

2:02 PM CST on January 24, 2017 (GMT -0600)
Florala

Weather History for K0J4 - December, 2013

Change the Weather History Date:

Sunday, December 22, 2013

  Actual Average (KCEW) Record (KCEW)
Temperature  
Mean Temperature 67 °F -  
Max Temperature 77 °F 58 °F 77 °F (1992)
Min Temperature 55 °F 38 °F 19 °F (1976)
Cooling Degree Days 2    
Growing Degree Days 17 (Base 50)    
Moisture  
Dew Point 65 °F    
Average Humidity 90    
Maximum Humidity 100    
Minimum Humidity 82    
Precipitation  
Precipitation 0.75 in - - ()
Sea Level Pressure  
Sea Level Pressure 30.00 in    
Wind  
Wind Speed 13 mph (SSW)    
Max Wind Speed 20 mph    
Max Gust Speed 31 mph    
Visibility 7 miles    
Events Rain , Thunderstorm    
Averages and records for this station are not official NWS values.
T = Trace of Precipitation, MM = Missing Value Source: NWS Daily Summary

Daily Weather History Graph

Daily Weather History Graph

Search for Another Location

Airport or City:

Trip Planner

Search our weather history database for the weather conditions in past years. The results will help you decide how hot, cold, wet, or windy it might be!

Date:

Astronomy

Dec. 22, 2013 Rise Set
Actual Time 6:40 AM CST 4:48 PM CST
Civil Twilight 6:13 AM CST 5:14 PM CST
Nautical Twilight 5:43 AM CST 5:45 PM CST
Astronomical Twilight 5:13 AM CST 6:14 PM CST
Moon 9:41 PM CST (12/22) 9:52 AM CST (12/22)
Length of Visible Light 11h 01m
Length of Day
10h 08m
Waning Gibbous, 76% of the Moon is Illuminated
Dec 22
Waning Gibbous
Dec 25
Last Quarter
Jan 1
New
Jan 7
First Quarter
Jan 15
Full

Hourly Weather History & Observations

Time (CST) Temp. Dew Point Humidity Pressure Visibility Wind Dir Wind Speed Gust Speed Precip Events Conditions
12:58 AM 73.9 °F 70.0 °F 87% 29.96 in 10.0 mi South 16.1 mph 24.2 mph N/A   Overcast
1:58 AM 73.9 °F 70.0 °F 87% 29.94 in 10.0 mi South 18.4 mph 24.2 mph 0.00 in   Overcast
2:58 AM 73.9 °F 69.1 °F 85% 29.93 in 10.0 mi South 19.6 mph 26.5 mph N/A   Overcast
3:58 AM 73.9 °F 69.1 °F 85% 29.93 in 10.0 mi South 18.4 mph 27.6 mph 0.00 in   Overcast
4:58 AM 73.9 °F 69.1 °F 85% 29.93 in 10.0 mi South 11.5 mph 25.3 mph N/A   Overcast
5:25 AM 73.4 °F 69.8 °F 88% 29.94 in 10.0 mi South 16.1 mph 23.0 mph N/A   Overcast
5:58 AM 73.9 °F 69.1 °F 85% 29.93 in 10.0 mi South 19.6 mph 31.1 mph N/A   Overcast
6:05 AM 73.4 °F 69.8 °F 88% 29.94 in 10.0 mi South 15.0 mph 31.1 mph N/A   Mostly Cloudy
6:09 AM 73.4 °F 69.8 °F 88% 29.94 in 10.0 mi South 15.0 mph 25.3 mph N/A   Overcast
6:58 AM 73.9 °F 70.0 °F 87% 29.96 in 10.0 mi South 16.1 mph - N/A   Overcast
7:58 AM 75.0 °F 70.0 °F 84% 29.98 in 10.0 mi South 18.4 mph 24.2 mph N/A   Overcast
8:14 AM 75.2 °F 69.8 °F 83% 30.00 in 10.0 mi SSW 15.0 mph 25.3 mph N/A   Overcast
8:48 AM 75.2 °F 71.6 °F 89% 30.00 in 5.0 mi South 13.8 mph 25.3 mph 0.01 in Rain Light Rain
8:58 AM 75.0 °F 71.1 °F 87% 29.99 in 9.0 mi SSW 17.3 mph 25.3 mph 0.01 in Rain Light Rain
8:59 AM 75.2 °F 71.6 °F 89% 30.01 in 10.0 mi SSW 15.0 mph 25.3 mph 0.00 in Rain Light Rain
9:11 AM 75.2 °F 71.6 °F 89% 30.01 in 7.0 mi South 13.8 mph 23.0 mph 0.00 in Rain Light Rain
9:25 AM 75.2 °F 71.6 °F 89% 30.01 in 10.0 mi SSW 18.4 mph 24.2 mph 0.00 in   Overcast
10:23 AM 75.2 °F 71.6 °F 89% 30.01 in 6.0 mi South 15.0 mph 20.7 mph 0.00 in Rain Light Rain
10:58 AM 75.0 °F 71.1 °F 87% 29.99 in 7.0 mi SSW 18.4 mph 24.2 mph 0.00 in Rain Light Rain
11:50 AM 75.2 °F 71.6 °F 89% 29.99 in 10.0 mi SSW 15.0 mph 24.2 mph 0.01 in   Overcast
11:58 AM 77.0 °F 71.1 °F 82% 29.97 in 10.0 mi SSW 18.4 mph 26.5 mph 0.01 in   Overcast
12:48 PM 75.2 °F 71.6 °F 89% 29.96 in 10.0 mi South 15.0 mph 23.0 mph N/A   Overcast
12:58 PM 75.9 °F 71.1 °F 85% 29.95 in 9.0 mi SSW 18.4 mph 26.5 mph 0.00 in Rain Light Rain
1:05 PM 75.2 °F 71.6 °F 89% 29.96 in 6.0 mi South 16.1 mph 26.5 mph 0.00 in Rain Light Rain
1:16 PM 75.2 °F 71.6 °F 89% 29.96 in 7.0 mi SSW 17.3 mph 24.2 mph 0.00 in Rain Light Rain
1:58 PM 75.9 °F 71.1 °F 85% 29.94 in 10.0 mi SSW 18.4 mph 25.3 mph 0.00 in Rain Light Rain
2:58 PM 75.9 °F 72.0 °F 87% 29.94 in 10.0 mi SSW 15.0 mph - 0.00 in   Overcast
3:34 PM 73.4 °F 71.6 °F 94% 29.97 in 7.0 mi Variable 5.8 mph 25.3 mph 0.01 in Rain Light Rain
3:50 PM 69.8 °F 66.2 °F 88% 29.97 in 10.0 mi Variable 4.6 mph 17.3 mph 0.01 in   Overcast
3:58 PM 68.0 °F 66.0 °F 93% 29.96 in 10.0 mi SSW 3.5 mph - 0.01 in   Overcast
4:03 PM 68.0 °F 66.2 °F 94% 29.97 in 10.0 mi NW 3.5 mph - 0.00 in Rain Light Rain
4:11 PM 66.2 °F 66.2 °F 100% 29.97 in 9.0 mi Calm Calm - 0.00 in Rain Light Rain
4:17 PM 68.0 °F 66.2 °F 94% 29.97 in 8.0 mi Calm Calm - 0.00 in Rain Light Rain
4:25 PM 66.2 °F 64.4 °F 94% 29.96 in 5.0 mi Calm Calm - 0.01 in Rain Light Rain
4:33 PM 66.2 °F 64.4 °F 94% 29.96 in 9.0 mi Calm Calm - 0.01 in Rain Light Rain
4:58 PM 73.9 °F 71.1 °F 91% 29.96 in 10.0 mi South 12.7 mph 19.6 mph 0.01 in Rain Light Rain
5:58 PM 73.9 °F 71.1 °F 91% 29.97 in 9.0 mi South 13.8 mph 23.0 mph 0.00 in Rain Light Rain
6:21 PM 71.6 °F 69.8 °F 94% 30.00 in 2.0 mi NNW 10.4 mph 18.4 mph 0.08 in Rain Heavy Rain
6:28 PM 64.4 °F 62.6 °F 94% 30.01 in 3.0 mi Variable 5.8 mph - 0.08 in Rain Rain
6:32 PM 64.4 °F 62.6 °F 94% 30.03 in 6.0 mi West 9.2 mph 19.6 mph 0.09 in Rain Rain
6:38 PM 62.6 °F 60.8 °F 94% 30.03 in 4.0 mi NNW 10.4 mph 19.6 mph 0.14 in Rain Rain
6:49 PM 60.8 °F 60.8 °F 100% 30.04 in 5.0 mi Variable 5.8 mph - 0.17 in Rain Rain
6:58 PM 61.0 °F 59.0 °F 93% 30.04 in 4.0 mi NNW 8.1 mph - 0.19 in Rain Rain
7:06 PM 60.8 °F 59.0 °F 94% 30.05 in 5.0 mi NNW 10.4 mph 16.1 mph 0.02 in Rain Rain
7:17 PM 60.8 °F 59.0 °F 94% 30.06 in 2.5 mi NNW 4.6 mph - 0.07 in Rain Heavy Rain
7:22 PM 60.8 °F 59.0 °F 94% 30.06 in 4.0 mi North 6.9 mph - 0.08 in Rain Light Rain
7:42 PM 60.8 °F 57.2 °F 88% 30.07 in 3.0 mi NNW 6.9 mph - 0.12 in Rain Rain
7:54 PM 60.8 °F 57.2 °F 88% 30.07 in 7.0 mi North 6.9 mph - 0.13 in Rain Light Rain
7:58 PM 60.1 °F 57.9 °F 93% 30.06 in 9.0 mi Variable 5.8 mph - 0.13 in Rain Light Rain
8:28 PM 60.8 °F 57.2 °F 88% 30.07 in 10.0 mi North 4.6 mph - 0.00 in   Overcast
8:35 PM 60.8 °F 57.2 °F 88% 30.07 in 10.0 mi Variable 5.8 mph - 0.00 in Rain Light Rain
8:53 PM 59.0 °F 57.2 °F 94% 30.06 in 10.0 mi North 4.6 mph - 0.00 in Rain Light Rain
8:58 PM 59.0 °F 57.0 °F 93% 30.06 in 10.0 mi North 6.9 mph - 0.00 in Rain Light Rain
9:58 PM 57.9 °F 55.9 °F 93% 30.08 in 5.0 mi Variable 3.5 mph - 0.01 in Rain Light Rain
10:29 PM 57.2 °F 55.4 °F 94% 30.06 in 1.5 mi NE 9.2 mph - 0.16 in Rain Heavy Rain
10:37 PM 57.2 °F 55.4 °F 94% 30.11 in 3.0 mi Calm Calm - 0.18 in Rain Rain
10:40 PM 57.2 °F 55.4 °F 94% 30.11 in 4.0 mi Calm Calm - 0.18 in Rain , Thunderstorm Thunderstorms and Rain
10:53 PM 57.2 °F 55.4 °F 94% 30.11 in 3.0 mi Calm Calm - 0.23 in Rain , Thunderstorm Heavy Thunderstorms and Rain
10:58 PM 57.0 °F 55.0 °F 93% 30.11 in 2.5 mi Calm Calm - 0.26 in Rain Heavy Rain
11:07 PM 57.2 °F 55.4 °F 94% 30.11 in 3.0 mi Variable 3.5 mph - 0.04 in Rain Heavy Rain
11:58 PM 55.9 °F 53.1 °F 90% 30.08 in 4.0 mi North 8.1 mph - 0.12 in Rain Rain